Carlisle Airport, United Kingdom

7:10 PM BST on May 24, 2018 (GMT +0100)
Carlisle

Weather History for EGNC - August, 2013

Change the Weather History Date:

Thursday, August 15, 2013

  Actual Average Record
Temperature  
Mean Temperature 65 °F -  
Max Temperature 68 °F 62 °F 75 °F (2012)
Min Temperature 62 °F 54 °F 53 °F (2006)
Growing Degree Days 15 (Base 50)    
Moisture  
Dew Point 60 °F    
Average Humidity 85    
Maximum Humidity 94    
Minimum Humidity 78    
Precipitation  
Precipitation 0.00 in - - ()
Sea Level Pressure  
Sea Level Pressure 29.87 in    
Wind  
Wind Speed 12 mph ()    
Max Wind Speed 18 mph    
Max Gust Speed -    
Visibility 6.2 miles    
Events Rain    
Averages and records for this station are not official NWS values.
T = Trace of Precipitation, MM = Missing Value Source: Averaged Metar Reports

Daily Weather History Graph

Daily Weather History Graph

Search for Another Location

Airport or City:

Astronomy

Aug. 15, 2013 Rise Set
Actual Time 5:46 AM BST 8:44 PM BST
Civil Twilight 5:04 AM BST 9:26 PM BST
Nautical Twilight 4:09 AM BST 10:21 PM BST
Astronomical Twilight 2:54 AM BST 11:34 PM BST
Moon 4:04 PM BST (8/15) No Moon Set
Length of Visible Light 16h 21m
Length of Day
14h 57m
First Quarter, 61% of the Moon is Illuminated
Aug 15
First Quarter
Aug 21
Full
Aug 28
Last Quarter
Sep 5
New
Sep 12
First Quarter

Hourly Weather History & Observations

Time (BST) Temp. Dew Point Humidity Pressure Visibility Wind Dir Wind Speed Gust Speed Precip Events Conditions
8:50 AM 62.6 °F 60.8 °F 94% 29.89 in 6.2 mi SW 11.5 mph - N/A Rain Light Rain
9:20 AM 64.4 °F 60.8 °F 88% 29.89 in 6.2 mi SW 16.1 mph - N/A   Scattered Clouds
9:50 AM 64.4 °F 60.8 °F 88% 29.89 in 6.2 mi WSW 12.7 mph - N/A Rain Light Rain
10:20 AM 64.4 °F 60.8 °F 88% 29.89 in 6.2 mi WSW 9.2 mph - N/A Rain Light Rain
10:50 AM 64.4 °F 60.8 °F 88% 29.86 in 6.2 mi WSW 13.8 mph - N/A Rain Rain
11:20 AM 64.4 °F 60.8 °F 88% 29.89 in 6.2 mi WSW 15.0 mph - N/A   Scattered Clouds
11:50 AM 64.4 °F 59.0 °F 83% 29.89 in 6.2 mi WSW 12.7 mph - N/A   Mostly Cloudy
12:20 PM 62.6 °F 60.8 °F 94% 29.86 in 6.2 mi SW 13.8 mph - N/A   Mostly Cloudy
12:50 PM 64.4 °F 60.8 °F 88% 29.89 in 6.2 mi SW 12.7 mph - N/A   Mostly Cloudy
1:20 PM 64.4 °F 59.0 °F 83% 29.86 in 6.2 mi SW 16.1 mph - N/A   Mostly Cloudy
1:50 PM 66.2 °F 60.8 °F 83% 29.86 in 6.2 mi WSW 18.4 mph - N/A   Scattered Clouds
2:20 PM 66.2 °F 60.8 °F 83% 29.86 in 6.2 mi WSW 17.3 mph - N/A   Scattered Clouds
2:50 PM 66.2 °F 60.8 °F 83% 29.86 in 6.2 mi SW 16.1 mph - N/A   Scattered Clouds
3:20 PM 66.2 °F 59.0 °F 78% 29.86 in 6.2 mi WSW 18.4 mph - N/A   Scattered Clouds
3:50 PM 66.2 °F 59.0 °F 78% 29.86 in 6.2 mi SW 17.3 mph - N/A   Scattered Clouds
4:20 PM 66.2 °F 60.8 °F 83% 29.86 in 6.2 mi WSW 11.5 mph - N/A   Mostly Cloudy
4:50 PM 66.2 °F 60.8 °F 83% 29.83 in 6.2 mi SW 9.2 mph - N/A   Mostly Cloudy
5:20 PM 68.0 °F 60.8 °F 78% 29.83 in 6.2 mi SW 11.5 mph - N/A   Mostly Cloudy
5:50 PM 66.2 °F 60.8 °F 83% 29.83 in 6.2 mi WSW 10.4 mph - N/A Rain Light Rain